Location: Fond Mahaut
(18.0707°N, 63.0465°W)
Time: 11:24:14
(UTC+00:00)

Cosmos 2278 Rocket - Pass Details

Date: 08 December 2019
Orbit: 843 x 844 km, 71.0° (Epoch: 19 January)

Event Time Altitude Azimuth Distance (km) Brightness Sun altitude
Rises 22:47:48 0° 340° (NNW) 3,393 5.4 -16.6°
Reaches altitude 10° 22:50:14 10° 339° (NNW) 2,457 4.6 -17.2°
Maximum altitude 22:55:52 77° 254° (WSW) 864 2.3 -18.4°
Drops below altitude 10° 23:01:29 10° 169° (S) 2,451 4.7 -19.7°
Sets 23:03:56 0° 167° (SSE) 3,384 5.4 -20.2°
